VE7OTD Weather Reports


time (UTC)temp
C
wind
direction
speed
KPH
gust
KPH
rain 1hr
cm
rain 24hr
cm
rain mn
cm
humidity
%
barometer
mb
20260506102002 10 315 0.0 0.0 0.00 0.00 0.00 99 1015.6
20260506094942 10 270 0.0 0.0 0.00 0.00 0.00 99 1015.3
20260506091927 11 270 0.0 0.0 0.00 0.00 0.00 99 1015.1
20260506084911 11 338 0.0 0.0 0.00 0.00 0.00 99 1015.0
20260506081912 11 338 0.0 0.0 0.00 0.00 0.00 99 1014.7
20260506071742 12 22 0.0 0.0 0.00 0.00 0.00 96 1014.0
20260506061712 13 135 3.2 6.4 0.00 0.00 0.00 91 1013.5
20260506044548 15 158 3.2 3.2 0.00 0.00 0.00 84 1012.9
20260506041532 -17 135 3.2 6.4 0.00 0.00 0.00 1012.6
20260506034517 16 180 3.2 6.4 0.00 0.00 0.00 75 1012.3
20260506031502 17 135 3.2 4.8 0.00 0.00 0.00 69 1012.2
20260506024448 18 22 1.6 6.4 0.00 0.00 0.00 62 1012.0
20260506021432 -17 202 3.2 3.2 0.00 0.00 0.00 1012.0
20260506014417 -17 202 3.2 3.2 0.00 0.00 0.00 1011.9
20260506011403 -17 202 3.2 3.2 0.00 0.00 0.00 1012.0
20260506004347 20 202 3.2 6.4 0.00 0.00 0.00 56 1012.1
20260506001331 21 158 3.2 6.4 0.00 0.00 0.00 55 1012.2
20260505234303 21 112 6.4 8.0 0.00 0.00 0.00 55 1012.5
20260505231301 21 338 3.2 8.0 0.00 0.00 0.00 55 1012.7
20260505224246 21 158 4.8 8.0 0.00 0.00 0.00 54 1012.9
20260505221231 22 158 6.4 11.3 0.00 0.00 0.00 53 1013.1
20260505214216 22 180 4.8 8.0 0.00 0.00 0.00 54 1013.3
20260505211201 22 158 4.8 11.3 0.00 0.00 0.00 53 1013.5
20260505204145 22 158 4.8 9.7 0.00 0.00 0.00 55 1013.7
20260505201130 21 112 4.8 11.3 0.00 0.00 0.00 55 1013.8
20260505194115 22 180 6.4 9.7 0.00 0.00 0.00 56 1013.9
20260505191100 22 112 6.4 9.7 0.00 0.00 0.00 53 1013.7
20260505184045 21 90 4.8 8.0 0.00 0.00 0.00 59 1013.7
20260505181030 20 112 4.8 8.0 0.00 0.00 0.00 63 1013.7
20260505174016 20 112 6.4 8.0 0.00 0.00 0.00 64 1013.5
20260505170942 18 225 6.4 8.0 0.00 0.00 0.00 68 1013.6
20260505163932 19 112 4.8 6.4 0.00 0.00 0.00 69 1013.5
20260505160930 18 180 3.2 6.4 0.00 0.00 0.00 70 1013.4
20260505150915 18 180 3.2 3.2 0.00 0.00 0.00 67 1012.9
20260505123801 12 292 0.0 3.2 0.00 0.00 0.00 83 1011.5
20260505120730 13 22 1.6 3.2 0.00 0.00 0.00 80 1011.1
20260505113715 13 22 0.0 3.2 0.00 0.00 0.00 78 1010.9
20260505110701 13 338 1.6 3.2 0.00 0.00 0.00 76 1010.7